Regional Weather Roundup
Issued by NWS

Home | Current Version | Previous Version | Text Only | Print | Product List | Glossary Off
Versions: 1 2 3 4 5 6 7 8 9 10 11 12 13 14 15 16 17 18 19 20 21 22 23 24 25 26 27 28 29 30 31 32 33 34 35 36 37 38 39 40 41 42 43 44 45 46 47 48 49 50

236
ASUS43 KIND 242259
RWRIN

WEATHER ROUNDUP FOR INDIANA
NATIONAL WEATHER SERVICE INDIANAPOLIS IN
700 PM EDT SUN JUL 24 2016

NOTE: "FAIR" INDICATES FEW OR NO CLOUDS BELOW 12,000 FEET WITH NO
SIGNIFICANT WEATHER AND/OR OBSTRUCTIONS TO VISIBILITY.

* - STATION DOES NOT REPORT WEATHER SUCH AS PRECIPITATION OR FOG.

+ - STATION NOT QUALITY CONTROLLED BY THE NATIONAL WEATHER SERVICE.
    USE DATA WITH CAUTION...ESPECIALLY DEWPOINT AND RELATIVE
    HUMIDITY OBSERVATIONS.

INZ001>003-010>013-019-020-250000-
NORTHWEST INDIANA

CITY           SKY/WX    TMP DP  RH WIND       PRES   REMARKS
GARY /AIRPORT/ PTSUNNY   91 N/A N/A S14       29.88S
KNOX *+        MOSUNNY   88  68  51 S10       29.91S
MONTICELLO +   SUNNY     90  74  58 SW9       29.92S HX  99

$$

LMZ046-743>745-250000-
SOUTHERN LAKE MICHIGAN

STATION/POSITION TIME  TEMP    WIND        PRES    WAVE
                       AIR SEA DIR/SP/G            HT
                 (UTC) (F)     (DEG/KT/KT) (MB)    (FT)
BURNS HARBOR     2200   89     210/ 15/ 25 1012.2S
MICHIGAN CITY    2200   87     180/ 11/ 13   N/A
5NW MICH CITY    2200   82 74  210/ 10/ 14   N/A     2

$$

INZ004-005-014>016-021>024-250000-
NORTH CENTRAL INDIANA

CITY           SKY/WX    TMP DP  RH WIND       PRES   REMARKS
GOSHEN         MOSUNNY   89  75  63 SW12      29.91F HX  99
SOUTH BEND     CLOUDY    87  77  72 S13       29.90F HX  99
WARSAW +       MOSUNNY   88  75  66 SW7       29.92F HX  97

$$

INZ006>009-017-018-025>027-250000-
NORTHEAST INDIANA

CITY           SKY/WX    TMP DP  RH WIND       PRES   REMARKS
ANGOLA *+      SUNNY     88  84  89 SW9       29.93S HX 112
FORT WAYNE     PTSUNNY   90  74  59 SW14      29.93F HX  99

$$

INZ028-029-035-036-043>045-051>053-250000-
WEST CENTRAL INDIANA

CITY           SKY/WX    TMP DP  RH WIND       PRES   REMARKS
CRAWFORDSVL +  CLOUDY    86  78  77 S8        29.94F HX  98
LAFAYETTE      SUNNY     89  78  70 SW10      29.92S HX 103
TERRE HAUTE    MOSUNNY   89  77  67 S9        29.94F HX 101

$$

INZ030>032-037>040-046>048-054>057-064-065-250000-
CENTRAL INDIANA

CITY           SKY/WX    TMP DP  RH WIND       PRES   REMARKS
COLUMBUS       SUNNY     88  79  74 SW9       29.96F HX 102
INDIANAPOLIS   PTSUNNY   88  75  65 SW10      29.96F HX  97
-EAGLE CREEK   MOSUNNY   90  75  61 SW6       29.95F HX 100
KOKOMO *+      MOSUNNY   91  73  55 SW15      29.94S HX 100
SHELBYVILLE    SUNNY     90  76  63 SW8       29.95F HX 101

$$

INZ033-034-041-042-049-050-058-059-250000-
EAST CENTRAL INDIANA

CITY           SKY/WX    TMP DP  RH WIND       PRES   REMARKS
MUNCIE         MOSUNNY   91  74  57 SW14      29.95F HX 100

$$

INZ060-061-067>069-081>083-085>088-250000-
SOUTHWEST INDIANA

CITY           SKY/WX    TMP DP  RH WIND       PRES   REMARKS
EVANSVILLE     SUNNY     90  76  63 SW7       29.95F HX 101
HUNTINGBURG *+ SUNNY     91  75  59 S6        29.96F HX 102

$$

INZ062-063-066-070>080-084-089>092-250000-
SOUTH CENTRAL AND SOUTHEAST INDIANA

CITY           SKY/WX    TMP DP  RH WIND       PRES   REMARKS
BLOOMINGTON    SUNNY     88  76  67 SW6       29.97F HX  99
MADISON *+     CLOUDY    91  72  52 SW6       30.00S HX  98

$$





USA.gov is the U.S. government's official web portal to all federal, state and local government web resources and services.